KLM892 ESGG-ENBR

Flight info

Callsign KLM892
Flight time 0h 54m
Altitude 36000
Route DETNA DCT ARTOR DCT TITUX DCT PESUR
Aircraft B738/M-SDE2E3FGHIRWXY/LB1

Departure

Time 2026-05-06 17:55
Airport Göteborg Landvetter Airport (ESGG)

Arrival

Time 2026-05-06 18:49
Airport Bergen Airport, Flesland (ENBR)
Time Latitude Longitude Altitude Speed Heading
2026-05-06 16:03 57.66776 12.29323 515 ft 0 kts 116°
2026-05-06 17:45 57.66782 12.29301 515 ft 5 kts 115°
2026-05-06 17:45 57.66794 12.29255 515 ft 3 kts 119°
2026-05-06 17:46 57.66804 12.29224 515 ft 2 kts 125°
2026-05-06 17:46 57.66814 12.29207 515 ft 2 kts 176°
2026-05-06 17:46 57.66825 12.29211 515 ft 2 kts 196°
2026-05-06 17:46 57.66831 12.29215 515 ft 0 kts 211°
2026-05-06 17:49 57.66819 12.29207 515 ft 6 kts 202°
2026-05-06 17:50 57.66771 12.29167 515 ft 9 kts 204°
2026-05-06 17:50 57.66771 12.29115 515 ft 7 kts 293°
2026-05-06 17:50 57.66807 12.29013 515 ft 11 kts 322°
2026-05-06 17:50 57.66884 12.29041 515 ft 13 kts 24°
2026-05-06 17:51 57.66975 12.29124 515 ft 16 kts 27°
2026-05-06 17:51 57.67076 12.29215 515 ft 17 kts 25°
2026-05-06 17:51 57.67184 12.29314 515 ft 18 kts 26°
2026-05-06 17:51 57.67297 12.29417 515 ft 18 kts 25°
2026-05-06 17:52 57.67392 12.29479 515 ft 12 kts 351°
2026-05-06 17:52 57.67431 12.29393 522 ft 2 kts 297°
2026-05-06 17:52 57.67435 12.29379 523 ft 8 kts 297°
2026-05-06 17:52 57.67460 12.29259 520 ft 8 kts 273°
2026-05-06 17:53 57.67460 12.29255 520 ft 0 kts 273°
2026-05-06 17:53 57.67460 12.29242 520 ft 9 kts 268°
2026-05-06 17:54 57.67441 12.29073 519 ft 15 kts 245°
2026-05-06 17:54 57.67344 12.28938 521 ft 37 kts 206°
2026-05-06 17:54 57.66856 12.28495 522 ft 120 kts 206°
2026-05-06 17:54 57.65963 12.27683 999 ft 148 kts 209°
2026-05-06 17:55 57.65002 12.26795 1869 ft 163 kts 208°
2026-05-06 17:55 57.63948 12.25844 2852 ft 173 kts 207°
2026-05-06 17:55 57.62820 12.24827 3543 ft 186 kts 206°
2026-05-06 17:55 57.61624 12.23749 4238 ft 197 kts 205°
2026-05-06 17:56 57.60354 12.22618 5003 ft 207 kts 206°
2026-05-06 17:56 57.59032 12.21431 5868 ft 216 kts 205°
2026-05-06 17:56 57.57646 12.20194 6747 ft 225 kts 205°
2026-05-06 17:56 57.56274 12.18567 7436 ft 246 kts 230°
2026-05-06 17:57 57.55607 12.15601 8281 ft 260 kts 264°
2026-05-06 17:57 57.55618 12.12151 9039 ft 275 kts 271°
2026-05-06 17:57 57.55666 12.08508 9830 ft 286 kts 269°
2026-05-06 17:57 57.55477 12.04782 10627 ft 297 kts 261°
2026-05-06 17:58 57.55064 12.00910 11217 ft 313 kts 257°
2026-05-06 17:58 57.54548 11.96866 11777 ft 329 kts 257°
2026-05-06 17:58 57.54083 11.92627 12528 ft 337 kts 264°
2026-05-06 17:58 57.54107 11.88258 13470 ft 339 kts 275°
2026-05-06 17:59 57.54370 11.83876 14390 ft 341 kts 276°
2026-05-06 17:59 57.54652 11.79482 15280 ft 343 kts 276°
2026-05-06 17:59 57.54929 11.75052 16139 ft 345 kts 275°
2026-05-06 17:59 57.55192 11.70601 17002 ft 347 kts 274°
2026-05-06 18:00 57.55448 11.66125 17821 ft 349 kts 275°
2026-05-06 18:00 57.55708 11.61621 18638 ft 351 kts 275°
2026-05-06 18:00 57.55973 11.57092 19439 ft 352 kts 274°
2026-05-06 18:00 57.56235 11.52539 20169 ft 355 kts 274°
2026-05-06 18:01 57.56495 11.47948 20865 ft 358 kts 274°
2026-05-06 18:01 57.56754 11.43324 21526 ft 360 kts 273°
2026-05-06 18:01 57.57014 11.38675 22159 ft 362 kts 273°
2026-05-06 18:01 57.57275 11.34051 22771 ft 365 kts 273°
2026-05-06 18:02 57.57540 11.29330 23358 ft 368 kts 273°
2026-05-06 18:02 57.57801 11.24574 23937 ft 370 kts 272°
2026-05-06 18:02 57.58060 11.19793 24473 ft 373 kts 272°
2026-05-06 18:02 57.58343 11.14971 24972 ft 377 kts 275°
2026-05-06 18:03 57.59083 11.10223 25475 ft 388 kts 288°
2026-05-06 18:03 57.60495 11.05844 25938 ft 403 kts 302°
2026-05-06 18:03 57.62585 11.02233 26360 ft 419 kts 318°
2026-05-06 18:03 57.65022 10.99175 26771 ft 425 kts 320°
2026-05-06 18:04 57.67541 10.96209 27155 ft 430 kts 321°
2026-05-06 18:04 57.70090 10.93250 27532 ft 433 kts 320°
2026-05-06 18:04 57.72642 10.90215 27880 ft 436 kts 319°
2026-05-06 18:04 57.75185 10.87106 28228 ft 438 kts 320°
2026-05-06 18:05 57.77736 10.83960 28639 ft 439 kts 320°
2026-05-06 18:05 57.80294 10.80821 28992 ft 441 kts 320°
2026-05-06 18:05 57.82874 10.77678 29303 ft 443 kts 320°
2026-05-06 18:05 57.85471 10.74523 29608 ft 446 kts 320°
2026-05-06 18:06 57.88076 10.71350 29919 ft 448 kts 319°
2026-05-06 18:06 57.90691 10.68146 30237 ft 449 kts 319°
2026-05-06 18:06 57.93308 10.64921 30545 ft 451 kts 319°
2026-05-06 18:06 57.95936 10.61676 30826 ft 453 kts 319°
2026-05-06 18:07 57.98574 10.58421 31112 ft 454 kts 319°
2026-05-06 18:07 58.01221 10.55159 31462 ft 454 kts 319°
2026-05-06 18:07 58.03859 10.51908 31874 ft 452 kts 319°
2026-05-06 18:07 58.06485 10.48659 32266 ft 450 kts 319°
2026-05-06 18:08 58.09095 10.45415 32631 ft 449 kts 319°
2026-05-06 18:08 58.11705 10.42164 32989 ft 448 kts 319°
2026-05-06 18:08 58.14307 10.38921 33349 ft 447 kts 319°
2026-05-06 18:08 58.16903 10.35678 33708 ft 446 kts 319°
2026-05-06 18:09 58.19492 10.32442 34049 ft 446 kts 319°
2026-05-06 18:09 58.22073 10.29209 34382 ft 445 kts 319°
2026-05-06 18:09 58.24620 10.26016 34685 ft 445 kts 319°
2026-05-06 18:09 58.27198 10.22773 34993 ft 444 kts 319°
2026-05-06 18:10 58.29774 10.19524 35287 ft 444 kts 319°
2026-05-06 18:10 58.32354 10.16265 35568 ft 444 kts 319°
2026-05-06 18:10 58.34796 10.12733 35850 ft 439 kts 314°
2026-05-06 18:10 58.37164 10.09034 35935 ft 443 kts 314°
2026-05-06 18:11 58.41156 10.02680 35953 ft 449 kts 313°
2026-05-06 18:11 58.46754 9.93730 35958 ft 454 kts 314°
2026-05-06 18:12 58.51604 9.85998 35956 ft 453 kts 314°
2026-05-06 18:12 58.56396 9.78306 35957 ft 447 kts 313°
2026-05-06 18:13 58.61153 9.70626 35957 ft 447 kts 313°
2026-05-06 18:13 58.65907 9.62944 35957 ft 447 kts 313°
2026-05-06 18:14 58.70659 9.55225 35957 ft 447 kts 313°
2026-05-06 18:14 58.75403 9.47488 35957 ft 447 kts 313°
2026-05-06 18:15 58.80139 9.39743 35956 ft 446 kts 313°
2026-05-06 18:15 58.84871 9.31976 35956 ft 447 kts 313°
2026-05-06 18:16 58.89600 9.24186 35957 ft 446 kts 313°
2026-05-06 18:16 58.94312 9.16391 35962 ft 446 kts 313°
2026-05-06 18:17 58.98226 9.09893 35943 ft 446 kts 313°
2026-05-06 18:17 59.02927 9.02064 35960 ft 446 kts 313°
2026-05-06 18:18 59.08199 8.92595 35953 ft 441 kts 308°
2026-05-06 18:18 59.11768 8.85427 35954 ft 439 kts 307°
2026-05-06 18:19 59.16119 8.77044 35949 ft 441 kts 309°
2026-05-06 18:19 59.20495 8.68736 35958 ft 443 kts 309°
2026-05-06 18:20 59.24853 8.60252 35959 ft 442 kts 308°
2026-05-06 18:20 59.29168 8.51865 35982 ft 433 kts 309°
2026-05-06 18:21 59.33434 8.43563 35975 ft 432 kts 309°
2026-05-06 18:21 59.37677 8.35249 35967 ft 431 kts 308°
2026-05-06 18:22 59.41915 8.26924 35689 ft 433 kts 308°
2026-05-06 18:22 59.44036 8.22750 35283 ft 428 kts 308°
2026-05-06 18:22 59.46126 8.18637 34854 ft 424 kts 308°
2026-05-06 18:23 59.48194 8.14553 34439 ft 419 kts 307°
2026-05-06 18:23 59.50236 8.10506 34037 ft 414 kts 307°
2026-05-06 18:23 59.52254 8.06497 33636 ft 410 kts 307°
2026-05-06 18:23 59.54249 8.02526 33241 ft 405 kts 306°
2026-05-06 18:24 59.56218 7.98609 32988 ft 397 kts 306°
2026-05-06 18:24 59.58144 7.94778 33000 ft 393 kts 306°
2026-05-06 18:24 59.62024 7.86974 32514 ft 406 kts 306°
2026-05-06 18:25 59.64002 7.83006 31968 ft 404 kts 306°
2026-05-06 18:25 59.65972 7.79065 31425 ft 401 kts 305°
2026-05-06 18:25 59.67925 7.75154 30817 ft 398 kts 305°
2026-05-06 18:25 59.69861 7.71262 30301 ft 395 kts 304°
2026-05-06 18:26 59.71776 7.67399 29726 ft 391 kts 304°
2026-05-06 18:26 59.73669 7.63561 29165 ft 388 kts 304°
2026-05-06 18:26 59.75548 7.59744 28639 ft 385 kts 304°
2026-05-06 18:26 59.77385 7.56014 28111 ft 382 kts 304°
2026-05-06 18:27 59.79235 7.52253 27565 ft 379 kts 305°
2026-05-06 18:27 59.81070 7.48516 27006 ft 377 kts 305°
2026-05-06 18:27 59.82891 7.44799 26456 ft 374 kts 305°
2026-05-06 18:27 59.84698 7.41104 25897 ft 372 kts 306°
2026-05-06 18:28 59.86497 7.37421 25361 ft 370 kts 306°
2026-05-06 18:28 59.88284 7.33758 24827 ft 368 kts 306°
2026-05-06 18:28 59.90060 7.30110 24265 ft 366 kts 306°
2026-05-06 18:28 59.91825 7.26478 23736 ft 364 kts 306°
2026-05-06 18:29 59.93578 7.22867 23170 ft 361 kts 307°
2026-05-06 18:29 59.95319 7.19277 22613 ft 359 kts 307°
2026-05-06 18:29 59.97048 7.15703 22082 ft 356 kts 307°
2026-05-06 18:29 59.98764 7.12148 21536 ft 354 kts 307°
2026-05-06 18:30 60.00470 7.08610 20984 ft 353 kts 307°
2026-05-06 18:30 60.02167 7.05076 20430 ft 351 kts 307°
2026-05-06 18:30 60.03858 7.01554 19858 ft 350 kts 307°
2026-05-06 18:30 60.05543 6.98044 19320 ft 349 kts 307°
2026-05-06 18:31 60.07217 6.94560 18806 ft 346 kts 308°
2026-05-06 18:31 60.08881 6.91099 18276 ft 344 kts 308°
2026-05-06 18:31 60.10531 6.87651 17743 ft 342 kts 308°
2026-05-06 18:31 60.12149 6.84251 17199 ft 341 kts 308°
2026-05-06 18:32 60.13803 6.80773 16656 ft 339 kts 308°
2026-05-06 18:32 60.15403 6.77397 16117 ft 337 kts 308°
2026-05-06 18:32 60.17034 6.73956 15554 ft 334 kts 309°
2026-05-06 18:32 60.18632 6.70582 15041 ft 332 kts 309°
2026-05-06 18:33 60.20215 6.67230 14498 ft 329 kts 309°
2026-05-06 18:33 60.21763 6.63954 13973 ft 327 kts 310°
2026-05-06 18:33 60.23343 6.60612 13458 ft 324 kts 310°
2026-05-06 18:33 60.24646 6.57068 12918 ft 317 kts 297°
2026-05-06 18:34 60.25670 6.53166 12336 ft 314 kts 296°
2026-05-06 18:34 60.26637 6.49252 11775 ft 311 kts 295°
2026-05-06 18:34 60.27571 6.45341 11228 ft 308 kts 295°
2026-05-06 18:34 60.28496 6.41470 10721 ft 306 kts 295°
2026-05-06 18:35 60.29425 6.37633 10179 ft 304 kts 295°
2026-05-06 18:35 60.30331 6.33809 10054 ft 298 kts 293°
2026-05-06 18:35 60.31117 6.29998 10049 ft 290 kts 291°
2026-05-06 18:35 60.31824 6.26253 10036 ft 282 kts 290°
2026-05-06 18:36 60.32513 6.22603 10031 ft 275 kts 290°
2026-05-06 18:36 60.33206 6.19039 10032 ft 272 kts 291°
2026-05-06 18:36 60.33909 6.15493 10041 ft 271 kts 291°
2026-05-06 18:36 60.34612 6.11964 10041 ft 271 kts 291°
2026-05-06 18:37 60.35322 6.08382 9826 ft 278 kts 291°
2026-05-06 18:37 60.36031 6.04760 9571 ft 274 kts 290°
2026-05-06 18:37 60.36709 6.01220 9220 ft 267 kts 290°
2026-05-06 18:37 60.37377 5.97749 8861 ft 262 kts 290°
2026-05-06 18:38 60.38043 5.94355 8507 ft 257 kts 291°
2026-05-06 18:38 60.38706 5.91047 8163 ft 251 kts 291°
2026-05-06 18:38 60.39349 5.87812 7803 ft 246 kts 291°
2026-05-06 18:38 60.39971 5.84634 7470 ft 241 kts 291°
2026-05-06 18:39 60.40575 5.81504 7115 ft 237 kts 290°
2026-05-06 18:39 60.41170 5.78421 6768 ft 234 kts 291°
2026-05-06 18:39 60.41754 5.75421 6426 ft 231 kts 291°
2026-05-06 18:40 60.42901 5.69473 6053 ft 227 kts 290°
2026-05-06 18:40 60.43477 5.66479 5881 ft 228 kts 290°
2026-05-06 18:40 60.44044 5.63492 5671 ft 226 kts 290°
2026-05-06 18:40 60.44608 5.60558 5489 ft 221 kts 290°
2026-05-06 18:41 60.45164 5.57684 5263 ft 218 kts 290°
2026-05-06 18:41 60.45730 5.54801 4974 ft 223 kts 290°
2026-05-06 18:41 60.46290 5.51848 4642 ft 226 kts 289°
2026-05-06 18:41 60.46855 5.48865 4304 ft 227 kts 291°
2026-05-06 18:42 60.47426 5.45888 4171 ft 224 kts 290°
2026-05-06 18:42 60.47991 5.42920 4153 ft 226 kts 290°
2026-05-06 18:42 60.48549 5.39951 4147 ft 224 kts 289°
2026-05-06 18:42 60.48780 5.36825 3974 ft 229 kts 270°
2026-05-06 18:43 60.48755 5.33586 3736 ft 226 kts 267°
2026-05-06 18:43 60.48709 5.30444 3489 ft 221 kts 268°
2026-05-06 18:43 60.48659 5.27338 3253 ft 220 kts 269°
2026-05-06 18:43 60.48609 5.24287 3151 ft 210 kts 266°
2026-05-06 18:44 60.48334 5.21409 3141 ft 208 kts 248°
2026-05-06 18:44 60.47576 5.18984 3131 ft 201 kts 227°
2026-05-06 18:44 60.46447 5.17323 3136 ft 200 kts 206°
2026-05-06 18:44 60.45154 5.16638 3015 ft 184 kts 185°
2026-05-06 18:45 60.43921 5.16880 2813 ft 175 kts 172°
2026-05-06 18:45 60.42745 5.17281 2560 ft 166 kts 171°
2026-05-06 18:45 60.41623 5.17664 2339 ft 163 kts 171°
2026-05-06 18:45 60.40514 5.18042 2127 ft 160 kts 170°
2026-05-06 18:46 60.39418 5.18414 1918 ft 158 kts 170°
2026-05-06 18:46 60.38370 5.18768 1712 ft 148 kts 170°
2026-05-06 18:46 60.37371 5.19107 1538 ft 143 kts 170°
2026-05-06 18:46 60.36393 5.19438 1332 ft 142 kts 170°
2026-05-06 18:47 60.35426 5.19766 1141 ft 140 kts 170°
2026-05-06 18:47 60.34467 5.20094 950 ft 139 kts 169°
2026-05-06 18:47 60.33516 5.20419 771 ft 139 kts 169°
2026-05-06 18:47 60.32560 5.20785 602 ft 142 kts 168°
2026-05-06 18:48 60.31599 5.21097 458 ft 140 kts 172°
2026-05-06 18:48 60.30646 5.21349 265 ft 136 kts 166°
2026-05-06 18:48 60.29746 5.21681 146 ft 123 kts 168°
2026-05-06 18:48 60.29100 5.21900 160 ft 51 kts 169°
2026-05-06 18:49 60.28942 5.21956 163 ft 13 kts 157°
2026-05-06 18:49 60.28918 5.22116 164 ft 12 kts 82°
2026-05-06 18:49 60.28923 5.22181 167 ft 0 kts 82°
2026-05-06 18:51 60.28924 5.22191 168 ft 6 kts 82°
2026-05-06 18:51 60.28877 5.22294 170 ft 11 kts 166°
2026-05-06 18:51 60.28821 5.22327 170 ft 8 kts 145°
2026-05-06 18:51 60.28817 5.22395 173 ft 3 kts 67°
2026-05-06 18:52 60.28831 5.22454 174 ft 8 kts 62°
2026-05-06 18:52 60.28856 5.22542 174 ft 4 kts 60°
2026-05-06 18:52 60.28860 5.22557 174 ft 0 kts 60°